Newton, KS

10:57 PM CDT on October 23, 2019 (GMT -0500)
Newton City County

Weather History for KEWK - September, 2019

Change the Weather History Date:

Saturday, September 21, 2019

  Actual Average Record
Temperature  
Mean Temperature 78 °F -  
Max Temperature 87 °F 75 °F 95 °F (2005)
Min Temperature 69 °F 54 °F 41 °F (1999)
Cooling Degree Days 13    
Growing Degree Days 28 (Base 50)    
Moisture  
Dew Point 69 °F    
Average Humidity 81    
Maximum Humidity 94    
Minimum Humidity 55    
Precipitation  
Precipitation 0.01 in - - ()
Sea Level Pressure  
Sea Level Pressure 29.89 in    
Wind  
Wind Speed 17 mph (South)    
Max Wind Speed 29 mph    
Max Gust Speed 36 mph    
Visibility 10 miles    
Events      
Averages and records for this station are not official NWS values.
T = Trace of Precipitation, MM = Missing Value Source: NWS Daily Summary

Daily Weather History Graph

Daily Weather History Graph

Search for Another Location

Airport or City:

Astronomy

Sep. 21, 2019 Rise Set
Actual Time 7:15 AM CDT 7:27 PM CDT
Civil Twilight 6:49 AM CDT 7:54 PM CDT
Nautical Twilight 6:18 AM CDT 8:24 PM CDT
Astronomical Twilight 5:47 AM CDT 8:56 PM CDT
Moon No Moon Rise 2:17 PM CDT (9/21)
Length of Visible Light 13h 04m
Length of Day
12h 12m
Waning Gibbous, 54% of the Moon is Illuminated
Sep 21
Waning Gibbous
Sep 21
Last Quarter
Sep 28
New
Oct 5
First Quarter
Oct 13
Full

Hourly Weather History & Observations

Time (CDT) Temp. Heat Index Dew Point Humidity Pressure Visibility Wind Dir Wind Speed Gust Speed Precip Events Conditions
12:56 AM 72.0 °F - 69.1 °F 91% 29.90 in 10.0 mi South 16.1 mph - N/A   Overcast
1:04 AM 71.6 °F - 69.8 °F 94% 29.93 in 10.0 mi South 15.0 mph 23.0 mph N/A   Unknown
1:56 AM 71.1 °F - 68.0 °F 90% 29.90 in 10.0 mi South 13.8 mph - N/A   Unknown
2:56 AM 70.0 °F - 68.0 °F 93% 29.89 in 10.0 mi SSE 15.0 mph - N/A   Unknown
3:56 AM 69.1 °F - 66.9 °F 93% 29.88 in 10.0 mi South 16.1 mph - N/A   Mostly Cloudy
4:04 AM 69.8 °F - 66.2 °F 88% 29.92 in 10.0 mi South 15.0 mph - N/A   Scattered Clouds
4:56 AM 69.1 °F - 66.9 °F 93% 29.89 in 10.0 mi South 11.5 mph - N/A   Partly Cloudy
5:56 AM 69.1 °F - 66.9 °F 93% 29.89 in 10.0 mi South 13.8 mph - N/A   Unknown
6:56 AM 69.1 °F - 66.9 °F 93% 29.90 in 10.0 mi SSE 15.0 mph - N/A   Unknown
7:56 AM 70.0 °F - 66.9 °F 90% 29.92 in 10.0 mi South 15.0 mph 23.0 mph N/A   Unknown
8:08 AM 69.8 °F - 66.2 °F 88% 29.95 in 10.0 mi South 17.3 mph - N/A   Overcast
8:56 AM 71.1 °F - 68.0 °F 90% 29.93 in 10.0 mi South 16.1 mph 21.9 mph N/A   Overcast
9:09 AM 71.6 °F - 68.0 °F 88% 29.96 in 10.0 mi South 17.3 mph - N/A   Overcast
9:56 AM 73.9 °F - 69.1 °F 85% 29.92 in 10.0 mi South 19.6 mph 28.8 mph N/A   Overcast
10:56 AM 75.0 °F - 70.0 °F 84% 29.91 in 10.0 mi South 19.6 mph - N/A   Overcast
11:36 AM 77.0 °F - 69.8 °F 78% 29.97 in 10.0 mi SSW 23.0 mph 28.8 mph N/A   Overcast
11:56 AM 78.1 °F - 70.0 °F 76% 29.92 in 10.0 mi SSW 21.9 mph 27.6 mph N/A   Overcast
12:56 PM 82.0 °F 85.9 °F 70.0 °F 67% 29.90 in 10.0 mi SSW 23.0 mph 32.2 mph N/A   Mostly Cloudy
1:41 PM 82.4 °F 86.3 °F 69.8 °F 66% 29.92 in 10.0 mi South 21.9 mph - 0.01 in   Mostly Cloudy
1:56 PM 84.9 °F 88.8 °F 69.1 °F 59% 29.87 in 10.0 mi South 19.6 mph 26.5 mph 0.01 in   Scattered Clouds
2:56 PM 87.1 °F 91.3 °F 69.1 °F 55% 29.85 in 10.0 mi South 24.2 mph 31.1 mph N/A   Clear
3:56 PM 87.1 °F 92.8 °F 71.1 °F 59% 29.84 in 10.0 mi South 19.6 mph 29.9 mph N/A   Mostly Cloudy
4:56 PM 84.0 °F 89.0 °F 71.1 °F 65% 29.83 in 10.0 mi South 23.0 mph 32.2 mph N/A   Mostly Cloudy
5:56 PM 82.9 °F 88.0 °F 72.0 °F 69% 29.83 in 10.0 mi South 28.8 mph 35.7 mph N/A   Mostly Cloudy
6:56 PM 77.0 °F - 71.1 °F 82% 29.84 in 10.0 mi South 19.6 mph 26.5 mph N/A   Partly Cloudy
7:56 PM 75.9 °F - 68.0 °F 76% 29.84 in 10.0 mi South 21.9 mph 26.5 mph N/A   Partly Cloudy
8:56 PM 75.9 °F - 71.1 °F 85% 29.85 in 10.0 mi South 17.3 mph 23.0 mph N/A   Clear
9:56 PM 77.0 °F - 70.0 °F 79% 29.83 in 10.0 mi South 25.3 mph 35.7 mph N/A   Clear
10:56 PM 75.9 °F - 70.0 °F 82% 29.84 in 10.0 mi SSE 20.7 mph 27.6 mph N/A   Scattered Clouds
11:56 PM 77.0 °F - 69.1 °F 76% 29.87 in 10.0 mi SSW 11.5 mph - N/A   Mostly Cloudy